Regional Weather Roundup
Issued by NWS

Home | Current Version | Previous Version | Graphics & Text | Print | Product List | Glossary On
Versions: 1 2 3 4 5 6 7 8 9 10 11 12 13 14 15 16 17 18 19 20 21 22 23 24 25 26 27 28 29 30 31 32 33 34 35 36 37 38 39 40 41 42 43 44 45 46 47 48 49 50
000
ASUS43 KLOT 252108
RWRIL

ILLINOIS REGIONAL WEATHER ROUNDUP
NATIONAL WEATHER SERVICE CHICAGO/ROMEOVILLE IL
400 PM CDT WED MAY 25 2016

NOTE: "FAIR" INDICATES FEW OR NO CLOUDS BELOW 12,000 FEET WITH NO
SIGNIFICANT WEATHER AND/OR OBSTRUCTIONS TO VISIBILITY.

* THESE STATIONS ARE NOT UNDER NWS QUALITY CONTROL. THEY ALSO MAY NOT
  REPORT WEATHER SUCH AS PRECIPITATION OR FOG.

ILZ001-002-007-009-015-016-024-252200-
NORTHWEST ILLINOIS

CITY           SKY/WX    TMP DP  RH WIND       PRES   REMARKS
MOLINE         CLOUDY    85  60  42 SW13      29.86F HX  85
STERLING*      CLOUDY    79  69  71 NE8       29.87F HX  81
SAVANNA*       CLOUDY    83  67  59 S10       29.86S HX  85
$$

ILZ003-004-008-010-011-017-018-252200-
NORTH CENTRAL ILLINOIS

CITY           SKY/WX    TMP DP  RH WIND       PRES   REMARKS
ROCKFORD       TSTM      72  65  78 S13G23    29.91R
FREEPORT*      CLOUDY    83  61  48 S22G28    29.89F HX  83
ROCHELLE*      RAIN      71  67  89 W12       29.91R
DE KALB*       TSTM      82  60  47 S20G39    29.91R HX  82
$$

ILZ005-006-012>014-019>023-252200-
NORTHEAST ILLINOIS

CITY           SKY/WX    TMP DP  RH WIND       PRES   REMARKS
CHICAGO-OHARE  PTSUNNY   85  61  44 SE12G18   29.88F HX  85
CHICAGO-MIDWAY PTSUNNY   89  56  32 S12G18    29.89F HX  87
AURORA         CLOUDY    85  58  39 SE10      29.87F HX  84
LANSING*       MOSUNNY   88  57  35 S17       29.91F HX  86
JOLIET*        CLOUDY    89  62  41 S13G22    29.87F HX  89
WAUKEGAN       CLOUDY    74  61  63 E9        29.91F
DUPAGE AIRPORT CLOUDY    84  57  39 S14       29.88F HX  83
KANKAKEE*      CLOUDY   N/A N/A N/A S15G22    29.91F
WHEELING       MOSUNNY   85  59  41 SE10      29.90F HX  84
MORRIS*        CLOUDY    89  59  36 S17G23    29.85F HX  88
ROMEOVILLE*    PTSUNNY   89  55  30 S15G25    29.87F HX  87
NORTHERLY ISL    N/A     68  58  70 E7          N/A
NORTHERLY ISL    N/A     68  58  70 E7          N/A
$$

LMZ740>746-252200-
SOUTHERN LAKE MICHIGAN

STATION/POSITION SKY/WX   TEMP    WIND        PRES    VSBY  WAVE
                          AIR SEA DIR/SP/G                  HT/PER
                          (F)     (DEG/KT/KT) (MB)    (MI)  (FT/S)
SOUTHERN BUOY              60 54  130/  4/  6 1013.4F         0
WILMETTE HARBOR            64 58  130/ 10/ 10   N/A           1/ 2
HARRISON CRIB              76     100/ 18/ 18   N/A
BURNHAM HARBOR             68      CALM  / 12   N/A
CALUMET HARBOR             71      60/  9/ 11 1013.0
BURNS HARBOR               86     210/  8/ 11 1014.2F
MICHIGAN CITY              69      10/  9/ 10   N/A
MICHIGAN CITY 6N           65 61   50/  6/  8   N/A           0
ST. JOSEPH                 69 66   10/  4/  6   N/A           0
$$

ILZ025>027-034>036-040-047-049-050-058-095>099-252200-
WEST-CENTRAL ILLINOIS

CITY           SKY/WX    TMP DP  RH WIND       PRES   REMARKS
QUINCY         CLOUDY    83  63  50 S14       29.88F HX  84
GALESBURG*     MOSUNNY   81  64  55 S10       29.89F HX  82
MACOMB*        PTSUNNY   83  64  51 SW9       29.92F HX  84
JACKSONVILLE*  PTSUNNY   82  66  59 S16G24    29.93F HX  84
PITTSFIELD*    CLOUDY    83  68  60 S13G22    29.93F HX  86
$$

ILZ028>032-037-038-041>044-048-051>054-059>061-252200-
CENTRAL ILLINOIS

CITY           SKY/WX    TMP DP  RH WIND       PRES   REMARKS
PONTIAC        CLOUDY    87  66  49 S18G29    29.90F HX  89
BLOOMINGTON    CLOUDY    83  67  58 SW23G30   29.94F HX  85
DECATUR        CLOUDY    80  64  58 S20G26    29.96F HX  82
PEORIA         CLOUDY    82  65  56 S16G30    29.90F HX  84
LACON*         CLOUDY    84  65  52 SW12G20   29.88S HX  86
LINCOLN*       PTSUNNY   80  68  65 S20       29.93F HX  83
SPRINGFIELD    CLOUDY    79  66  64 S18       29.95F HX  81
TAYLORVILLE    CLOUDY    78  67  67 S17       29.96F HX  80
$$

ILZ033-039-045-046-055>057-062-063-252200-
EAST-CENTRAL ILLINOIS

CITY           SKY/WX    TMP DP  RH WIND       PRES   REMARKS
CHAMPAIGN      CLOUDY    83  62  49 S25G32    29.97F HX  84
RANTOUL*       PTSUNNY   84  66  54 S18G26    29.96F HX  86
MATTOON        CLOUDY    77  63  61 S17G26    29.98F
PARIS*         CLOUDY    81  64  57 SW12      30.02S HX  82
$$

ILZ079-100>102-252200-
SOUTHWEST ILLINOIS

CITY           SKY/WX    TMP DP  RH WIND       PRES   REMARKS
BELLEVILLE     CLOUDY    81  72  74 E14G20    29.94F HX  85
CAHOKIA*       PTSUNNY   81  67  62 SE14G22   29.95F HX  83
SPARTA*        PTSUNNY   77  67  72 S12       29.99F
$$

ILZ064>066-069>071-074>076-080>082-084>086-088>090-092>094-252200-
SOUTH-CENTRAL ILLINOIS

CITY           SKY/WX    TMP DP  RH WIND       PRES   REMARKS
CARBONDALE     CLOUDY    76  68  76 SE7       30.00F
CAIRO*         CLOUDY    76  71  82 SE10      29.99F
EFFINGHAM*     MOSUNNY   75  68  77 S7        30.01F
MT. VERNON     CLOUDY    77  66  69 S14       30.03F
CENTRALIA*     PTSUNNY   75  69  82 S14G20    29.99F
SALEM*         CLOUDY    75  67  76 S14G20    30.01F
METROPOLIS*    PTSUNNY   74  72  92 SE3       30.04F
$$

ILZ067-068-072-073-078-083-087-091-252200-
SOUTHEAST ILLINOIS

CITY           SKY/WX    TMP DP  RH WIND       PRES   REMARKS
LAWRENCEVILLE  CLOUDY    76  63  64 S15       30.04F
FLORA*         LGT RAIN  74  68  80 S14       30.01F
FAIRFIELD*     LGT RAIN  74  67  77 S8        30.01F
HARRISBURG*    CLOUDY    73  69  88 SE9       30.02F
ROBINSON*      CLOUDY    76  67  72 SW14      30.03F
CARMI*         CLOUDY    73  69  88 S12       30.02F
$$

ABBREVIATIONS USED IN REMARKS
   TC - TEMPERATURE IN CELSIUS
  WCI - WIND CHILL INDEX
   HX - HEAT INDEX
  VSB - VISIBILITY
$$





USA.gov is the U.S. government's official web portal to all federal, state and local government web resources and services.